Volver al catálogo

SL-12 R/B(2)

ActivoGEO
NORAD 20926·ROCKET BODY·🇷🇺 Russia

Lanzado Nov 3, 1990 desde Baikonur Cosmodrome

Loading…

TLE

ActualizadoSource: Space-Track

Época: Sep 14, 2026, 12:46 UTC

1 20926U 90094D   26257.53223538 -.00000166  00000-0  00000+0 0  9997
2 20926  12.4085 335.3917 0033460 159.5097 193.2734  1.00853949132121

Sigue SL-12 R/B(2) en tiempo real con AllMySat

Download on the App Store